PFL455 KOMA-KSFB

Flight info

Callsign PFL455
Flight time 2h 16m
Altitude 37000
Route DCT STJ DCT MCI J41 MEM DCT VLKNN DCT ACORI DCT CABLO DCT BULZI DCT BITTE SHREK2
Aircraft A320/M-SDE3FGHIRWY/LB1

Departure

Time 2026-05-04 14:05
Airport Eppley Airfield (KOMA)

Arrival

Time 2026-05-04 16:21
Airport Orlando Sanford International Airport (KSFB)
Time Latitude Longitude Altitude Speed Heading
2026-05-04 13:50 41.30486 -95.88600 987 ft 0 kts 202°
2026-05-04 13:55 41.30485 -95.88600 987 ft 1 kts 202°
2026-05-04 13:55 41.30483 -95.88601 986 ft 0 kts 204°
2026-05-04 13:56 41.30500 -95.88586 993 ft 3 kts 246°
2026-05-04 13:57 41.30502 -95.88582 992 ft 0 kts 252°
2026-05-04 13:57 41.30497 -95.88603 980 ft 6 kts 252°
2026-05-04 13:58 41.30405 -95.88720 991 ft 6 kts 196°
2026-05-04 13:58 41.30334 -95.88779 993 ft 7 kts 209°
2026-05-04 13:58 41.30290 -95.88762 990 ft 7 kts 148°
2026-05-04 13:59 41.30251 -95.88727 989 ft 6 kts 145°
2026-05-04 13:59 41.30210 -95.88688 990 ft 8 kts 145°
2026-05-04 13:59 41.30094 -95.88580 995 ft 12 kts 144°
2026-05-04 14:00 41.30022 -95.88509 997 ft 13 kts 143°
2026-05-04 14:00 41.29837 -95.88336 993 ft 19 kts 146°
2026-05-04 14:00 41.29771 -95.88266 988 ft 11 kts 142°
2026-05-04 14:01 41.29697 -95.88196 987 ft 15 kts 146°
2026-05-04 14:01 41.29617 -95.88126 993 ft 12 kts 147°
2026-05-04 14:01 41.29514 -95.88153 989 ft 0 kts 235°
2026-05-04 14:03 41.29510 -95.88160 991 ft 3 kts 235°
2026-05-04 14:03 41.29494 -95.88194 986 ft 6 kts 243°
2026-05-04 14:03 41.29500 -95.88265 988 ft 10 kts 297°
2026-05-04 14:04 41.29546 -95.88325 991 ft 15 kts 323°
2026-05-04 14:04 41.29831 -95.88596 991 ft 82 kts 324°
2026-05-04 14:04 41.30444 -95.89179 993 ft 131 kts 324°
2026-05-04 14:05 41.32205 -95.90832 1534 ft 169 kts 326°
2026-05-04 14:05 41.33230 -95.91713 1915 ft 183 kts 325°
2026-05-04 14:05 41.34361 -95.92676 2278 ft 204 kts 323°
2026-05-04 14:06 41.35629 -95.93767 2672 ft 228 kts 317°
2026-05-04 14:06 41.36532 -95.95534 3088 ft 242 kts 282°
2026-05-04 14:06 41.36492 -95.97788 3765 ft 251 kts 250°
2026-05-04 14:06 41.35477 -95.99688 4646 ft 261 kts 219°
2026-05-04 14:07 41.33770 -96.00537 5486 ft 278 kts 186°
2026-05-04 14:07 41.31825 -96.00050 6293 ft 294 kts 161°
2026-05-04 14:07 41.29979 -95.98799 7133 ft 302 kts 151°
2026-05-04 14:07 41.28213 -95.97257 8005 ft 306 kts 147°
2026-05-04 14:08 41.26457 -95.95624 8866 ft 310 kts 147°
2026-05-04 14:08 41.24673 -95.93993 9722 ft 313 kts 148°
2026-05-04 14:08 41.22840 -95.92383 10328 ft 325 kts 149°
2026-05-04 14:08 41.20867 -95.90718 10536 ft 347 kts 150°
2026-05-04 14:09 41.16552 -95.87223 11370 ft 376 kts 151°
2026-05-04 14:09 41.14299 -95.85422 12091 ft 380 kts 152°
2026-05-04 14:10 41.09725 -95.81771 13604 ft 387 kts 152°
2026-05-04 14:10 41.07407 -95.79920 14261 ft 391 kts 152°
2026-05-04 14:10 41.05063 -95.78046 14880 ft 396 kts 152°
2026-05-04 14:10 41.02720 -95.76176 15493 ft 400 kts 152°
2026-05-04 14:11 41.00322 -95.74258 16070 ft 405 kts 152°
2026-05-04 14:11 40.95455 -95.70365 17243 ft 413 kts 152°
2026-05-04 14:11 40.92980 -95.68393 17840 ft 417 kts 152°
2026-05-04 14:12 40.90477 -95.66401 18385 ft 421 kts 152°
2026-05-04 14:12 40.87955 -95.64399 18951 ft 424 kts 152°
2026-05-04 14:12 40.82909 -95.60400 20176 ft 428 kts 151°
2026-05-04 14:13 40.80351 -95.58370 20787 ft 430 kts 151°
2026-05-04 14:13 40.77777 -95.56328 21381 ft 432 kts 151°
2026-05-04 14:13 40.75198 -95.54285 21958 ft 434 kts 151°
2026-05-04 14:13 40.72595 -95.52225 22538 ft 437 kts 151°
2026-05-04 14:14 40.69988 -95.50165 23104 ft 439 kts 150°
2026-05-04 14:14 40.64718 -95.46005 24068 ft 444 kts 151°
2026-05-04 14:14 40.62056 -95.43907 24505 ft 447 kts 151°
2026-05-04 14:15 40.56712 -95.39703 25374 ft 454 kts 151°
2026-05-04 14:15 40.51254 -95.35415 26234 ft 460 kts 151°
2026-05-04 14:16 40.45716 -95.31074 27107 ft 467 kts 151°
2026-05-04 14:16 40.42918 -95.28885 27512 ft 470 kts 151°
2026-05-04 14:17 40.37297 -95.24500 28307 ft 476 kts 151°
2026-05-04 14:17 40.34445 -95.22278 28675 ft 479 kts 152°
2026-05-04 14:17 40.28688 -95.17789 29607 ft 481 kts 152°
2026-05-04 14:18 40.25810 -95.15549 30110 ft 481 kts 152°
2026-05-04 14:18 40.20067 -95.11085 31027 ft 480 kts 152°
2026-05-04 14:19 40.14335 -95.06634 31980 ft 478 kts 152°
2026-05-04 14:19 40.11515 -95.04445 32404 ft 478 kts 152°
2026-05-04 14:19 40.08655 -95.02233 32874 ft 477 kts 153°
2026-05-04 14:19 40.05795 -95.00026 33361 ft 477 kts 153°
2026-05-04 14:20 40.02944 -94.97828 33838 ft 476 kts 153°
2026-05-04 14:20 40.00099 -94.95638 34264 ft 475 kts 153°
2026-05-04 14:20 39.97208 -94.93581 34709 ft 471 kts 159°
2026-05-04 14:21 39.91033 -94.91114 35499 ft 462 kts 173°
2026-05-04 14:21 39.87884 -94.90243 35847 ft 463 kts 173°
2026-05-04 14:21 39.84778 -94.89374 36205 ft 463 kts 173°
2026-05-04 14:21 39.81629 -94.88489 36569 ft 463 kts 173°
2026-05-04 14:22 39.78475 -94.87602 36710 ft 465 kts 173°
2026-05-04 14:22 39.75308 -94.86709 36731 ft 466 kts 173°
2026-05-04 14:22 39.68969 -94.84921 36719 ft 467 kts 174°
2026-05-04 14:23 39.59550 -94.81456 36719 ft 482 kts 153°
2026-05-04 14:23 39.56927 -94.78810 36720 ft 490 kts 136°
2026-05-04 14:24 39.54607 -94.75558 36717 ft 492 kts 135°
2026-05-04 14:24 39.50008 -94.68983 36710 ft 492 kts 135°
2026-05-04 14:25 39.45411 -94.62406 36676 ft 494 kts 135°
2026-05-04 14:25 39.38383 -94.52719 36706 ft 491 kts 145°
2026-05-04 14:26 39.33029 -94.47257 36732 ft 493 kts 139°
2026-05-04 14:26 39.28462 -94.40589 36736 ft 497 kts 132°
2026-05-04 14:27 39.23763 -94.34081 36714 ft 495 kts 140°
2026-05-04 14:27 39.18728 -94.28183 36715 ft 496 kts 141°
2026-05-04 14:28 39.13597 -94.22219 36720 ft 497 kts 141°
2026-05-04 14:28 39.08742 -94.15836 36740 ft 500 kts 135°
2026-05-04 14:29 38.99136 -94.03043 36756 ft 479 kts 153°
2026-05-04 14:30 38.96300 -94.01113 36756 ft 459 kts 162°
2026-05-04 14:30 38.93399 -93.99569 36764 ft 447 kts 160°
2026-05-04 14:30 38.88655 -93.94410 36773 ft 455 kts 132°
2026-05-04 14:31 38.86619 -93.91295 36775 ft 456 kts 133°
2026-05-04 14:32 38.78401 -93.79002 36773 ft 454 kts 134°
2026-05-04 14:32 38.74277 -93.72878 36774 ft 453 kts 134°
2026-05-04 14:33 38.70162 -93.66759 36776 ft 453 kts 133°
2026-05-04 14:33 38.66051 -93.60640 36772 ft 453 kts 133°
2026-05-04 14:34 38.61962 -93.54579 36776 ft 453 kts 134°
2026-05-04 14:34 38.57837 -93.48481 36794 ft 454 kts 134°
2026-05-04 14:35 38.53707 -93.42387 36796 ft 454 kts 134°
2026-05-04 14:35 38.49576 -93.36297 36804 ft 454 kts 134°
2026-05-04 14:36 38.45437 -93.30206 36811 ft 454 kts 134°
2026-05-04 14:36 38.41328 -93.24174 36811 ft 454 kts 134°
2026-05-04 14:37 38.37190 -93.18114 36807 ft 452 kts 134°
2026-05-04 14:37 38.33057 -93.12070 36804 ft 452 kts 134°
2026-05-04 14:38 38.28921 -93.06041 36803 ft 452 kts 134°
2026-05-04 14:38 38.24807 -93.00049 36794 ft 452 kts 134°
2026-05-04 14:39 38.20665 -92.94025 36790 ft 452 kts 134°
2026-05-04 14:39 38.16518 -92.88009 36790 ft 452 kts 134°
2026-05-04 14:40 38.10296 -92.78996 36831 ft 452 kts 134°
2026-05-04 14:40 38.06169 -92.73036 36840 ft 453 kts 134°
2026-05-04 14:41 38.02010 -92.67040 36849 ft 453 kts 134°
2026-05-04 14:42 37.93681 -92.55067 36824 ft 453 kts 134°
2026-05-04 14:42 37.89541 -92.49140 36829 ft 452 kts 134°
2026-05-04 14:43 37.85372 -92.43179 36823 ft 452 kts 134°
2026-05-04 14:43 37.81202 -92.37220 36827 ft 452 kts 134°
2026-05-04 14:44 37.77056 -92.31300 36832 ft 452 kts 134°
2026-05-04 14:44 37.72857 -92.25320 36832 ft 451 kts 134°
2026-05-04 14:45 37.68714 -92.19439 36815 ft 451 kts 135°
2026-05-04 14:45 37.64546 -92.13531 36833 ft 450 kts 135°
2026-05-04 14:46 37.60375 -92.07634 36828 ft 451 kts 135°
2026-05-04 14:46 37.56200 -92.01735 36841 ft 451 kts 135°
2026-05-04 14:47 37.52045 -91.95868 36851 ft 456 kts 135°
2026-05-04 14:47 37.47749 -91.89828 36869 ft 470 kts 135°
2026-05-04 14:48 37.43316 -91.83621 36882 ft 484 kts 135°
2026-05-04 14:48 37.38762 -91.77233 36890 ft 497 kts 135°
2026-05-04 14:49 37.34121 -91.70731 36886 ft 507 kts 135°
2026-05-04 14:49 37.29396 -91.64114 36898 ft 509 kts 135°
2026-05-04 14:50 37.24660 -91.57508 36904 ft 509 kts 135°
2026-05-04 14:50 37.19920 -91.50907 36921 ft 509 kts 135°
2026-05-04 14:51 37.15175 -91.44331 36914 ft 508 kts 135°
2026-05-04 14:51 37.10459 -91.37807 36920 ft 508 kts 135°
2026-05-04 14:52 37.05709 -91.31241 36920 ft 508 kts 135°
2026-05-04 14:52 37.00962 -91.24682 36920 ft 508 kts 135°
2026-05-04 14:53 36.96208 -91.18139 36931 ft 508 kts 135°
2026-05-04 14:53 36.91486 -91.11649 36924 ft 507 kts 135°
2026-05-04 14:54 36.86741 -91.05149 36925 ft 507 kts 135°
2026-05-04 14:54 36.81991 -90.98652 36928 ft 507 kts 135°
2026-05-04 14:55 36.77239 -90.92144 36927 ft 507 kts 135°
2026-05-04 14:55 36.72517 -90.85705 36936 ft 507 kts 135°
2026-05-04 14:56 36.67755 -90.79230 36936 ft 506 kts 135°
2026-05-04 14:56 36.62991 -90.72764 36943 ft 507 kts 135°
2026-05-04 14:57 36.58226 -90.66301 36946 ft 507 kts 135°
2026-05-04 14:57 36.53449 -90.59853 36956 ft 507 kts 135°
2026-05-04 14:58 36.48704 -90.53453 36946 ft 507 kts 135°
2026-05-04 14:58 36.44697 -90.48050 36962 ft 508 kts 135°
2026-05-04 14:59 36.39128 -90.40558 36961 ft 508 kts 136°
2026-05-04 15:00 36.31943 -90.30911 36968 ft 508 kts 136°
2026-05-04 15:00 36.27172 -90.24526 36970 ft 508 kts 136°
2026-05-04 15:01 36.19964 -90.14902 36969 ft 508 kts 136°
2026-05-04 15:01 36.15160 -90.08502 36971 ft 508 kts 136°
2026-05-04 15:02 36.10383 -90.02150 36972 ft 508 kts 136°
2026-05-04 15:02 36.05568 -89.95766 36983 ft 507 kts 136°
2026-05-04 15:03 36.00756 -89.89399 36990 ft 507 kts 136°
2026-05-04 15:03 35.95946 -89.83031 36990 ft 507 kts 136°
2026-05-04 15:04 35.91948 -89.77752 36989 ft 507 kts 136°
2026-05-04 15:04 35.86344 -89.70373 36988 ft 507 kts 136°
2026-05-04 15:05 35.82337 -89.65108 36993 ft 507 kts 136°
2026-05-04 15:05 35.77504 -89.58779 36994 ft 507 kts 136°
2026-05-04 15:06 35.72672 -89.52457 37005 ft 508 kts 136°
2026-05-04 15:07 35.64625 -89.41946 36999 ft 508 kts 136°
2026-05-04 15:07 35.60600 -89.36701 37012 ft 508 kts 136°
2026-05-04 15:08 35.55756 -89.30389 37011 ft 508 kts 136°
2026-05-04 15:08 35.50119 -89.23068 37035 ft 507 kts 136°
2026-05-04 15:09 35.46049 -89.17800 37026 ft 508 kts 136°
2026-05-04 15:09 35.41218 -89.11555 37026 ft 508 kts 136°
2026-05-04 15:10 35.33914 -89.02125 37034 ft 509 kts 136°
2026-05-04 15:11 35.26603 -88.92710 37035 ft 508 kts 137°
2026-05-04 15:11 35.21745 -88.86488 37047 ft 510 kts 137°
2026-05-04 15:12 35.16848 -88.80221 37045 ft 509 kts 137°
2026-05-04 15:12 35.11956 -88.73959 37057 ft 509 kts 137°
2026-05-04 15:13 35.07061 -88.67707 37060 ft 509 kts 137°
2026-05-04 15:13 35.02160 -88.61467 37063 ft 509 kts 137°
2026-05-04 15:14 34.97293 -88.55272 37035 ft 510 kts 137°
2026-05-04 15:14 34.92373 -88.49021 37067 ft 511 kts 137°
2026-05-04 15:15 34.87447 -88.42777 37058 ft 511 kts 137°
2026-05-04 15:15 34.82521 -88.36546 37067 ft 510 kts 137°
2026-05-04 15:16 34.75163 -88.27264 37070 ft 510 kts 137°
2026-05-04 15:17 34.67754 -88.17929 37074 ft 513 kts 137°
2026-05-04 15:17 34.60335 -88.08620 37083 ft 514 kts 137°
2026-05-04 15:18 34.55371 -88.02400 37080 ft 512 kts 137°
2026-05-04 15:19 34.47936 -87.93118 37077 ft 512 kts 138°
2026-05-04 15:19 34.40470 -87.83816 37088 ft 514 kts 138°
2026-05-04 15:20 34.35513 -87.77651 37087 ft 515 kts 138°
2026-05-04 15:20 34.30516 -87.71444 37086 ft 515 kts 138°
2026-05-04 15:21 34.25525 -87.65256 37089 ft 514 kts 138°
2026-05-04 15:22 34.18030 -87.55997 37067 ft 514 kts 138°
2026-05-04 15:22 34.10515 -87.46756 37104 ft 517 kts 138°
2026-05-04 15:23 34.05486 -87.40567 37114 ft 517 kts 138°
2026-05-04 15:23 34.00455 -87.34379 37125 ft 517 kts 138°
2026-05-04 15:24 33.90418 -87.22099 37122 ft 517 kts 139°
2026-05-04 15:25 33.85354 -87.15916 37080 ft 519 kts 139°
2026-05-04 15:26 33.77749 -87.06637 37111 ft 520 kts 139°
2026-05-04 15:26 33.70148 -86.97426 37121 ft 520 kts 139°
2026-05-04 15:27 33.62538 -86.88186 37150 ft 519 kts 139°
2026-05-04 15:28 33.54891 -86.78948 37152 ft 521 kts 139°
2026-05-04 15:29 33.47228 -86.69719 37145 ft 521 kts 139°
2026-05-04 15:30 33.29384 -86.48283 37144 ft 520 kts 140°
2026-05-04 15:31 33.21750 -86.39176 37159 ft 519 kts 140°
2026-05-04 15:32 33.08960 -86.23950 37109 ft 520 kts 140°
2026-05-04 15:34 32.96126 -86.08744 37153 ft 522 kts 140°
2026-05-04 15:34 32.88405 -85.99618 37156 ft 521 kts 140°
2026-05-04 15:35 32.80672 -85.90511 37146 ft 523 kts 140°
2026-05-04 15:36 32.72917 -85.81398 37144 ft 526 kts 140°
2026-05-04 15:36 32.67711 -85.75288 37143 ft 526 kts 140°
2026-05-04 15:37 32.62497 -85.69193 37150 ft 526 kts 141°
2026-05-04 15:37 32.57322 -85.63145 37161 ft 526 kts 141°
2026-05-04 15:38 32.52108 -85.57056 37157 ft 528 kts 141°
2026-05-04 15:38 32.46855 -85.50937 37158 ft 530 kts 141°
2026-05-04 15:39 32.41599 -85.44825 37157 ft 530 kts 141°
2026-05-04 15:40 32.33749 -85.35728 37138 ft 528 kts 141°
2026-05-04 15:40 32.28500 -85.29649 37139 ft 528 kts 141°
2026-05-04 15:41 32.23245 -85.23576 37152 ft 530 kts 141°
2026-05-04 15:41 32.17961 -85.17487 37139 ft 531 kts 141°
2026-05-04 15:42 32.12703 -85.11429 37157 ft 531 kts 141°
2026-05-04 15:42 32.07411 -85.05342 37161 ft 531 kts 141°
2026-05-04 15:43 32.02122 -84.99272 37162 ft 530 kts 141°
2026-05-04 15:43 31.96840 -84.93217 37114 ft 530 kts 141°
2026-05-04 15:44 31.91585 -84.87203 37149 ft 531 kts 141°
2026-05-04 15:44 31.86285 -84.81146 37157 ft 531 kts 141°
2026-05-04 15:45 31.80978 -84.75103 37158 ft 531 kts 141°
2026-05-04 15:45 31.75670 -84.69070 37157 ft 531 kts 141°
2026-05-04 15:46 31.70367 -84.63040 37157 ft 530 kts 141°
2026-05-04 15:46 31.65101 -84.57066 37164 ft 530 kts 141°
2026-05-04 15:47 31.59793 -84.51052 37166 ft 530 kts 141°
2026-05-04 15:47 31.54484 -84.45052 37166 ft 530 kts 141°
2026-05-04 15:48 31.49174 -84.39061 37160 ft 530 kts 142°
2026-05-04 15:48 31.41244 -84.30129 37172 ft 530 kts 142°
2026-05-04 15:49 31.35933 -84.24157 37175 ft 529 kts 142°
2026-05-04 15:49 31.30627 -84.18213 37165 ft 528 kts 142°
2026-05-04 15:50 31.25325 -84.12277 37164 ft 528 kts 142°
2026-05-04 15:50 31.20065 -84.06384 37164 ft 527 kts 142°
2026-05-04 15:51 31.14763 -84.00461 37158 ft 527 kts 142°
2026-05-04 15:51 31.09458 -83.94549 37116 ft 527 kts 141°
2026-05-04 15:52 31.04163 -83.88649 37154 ft 526 kts 142°
2026-05-04 15:52 30.98898 -83.82800 37160 ft 526 kts 142°
2026-05-04 15:53 30.93591 -83.76925 37161 ft 526 kts 142°
2026-05-04 15:53 30.88293 -83.71056 37171 ft 526 kts 142°
2026-05-04 15:54 30.82991 -83.65188 37166 ft 526 kts 142°
2026-05-04 15:54 30.77724 -83.59370 37163 ft 524 kts 142°
2026-05-04 15:55 30.72439 -83.53544 37159 ft 523 kts 142°
2026-05-04 15:55 30.67149 -83.47733 37161 ft 523 kts 142°
2026-05-04 15:56 30.61863 -83.41922 37166 ft 524 kts 142°
2026-05-04 15:56 30.56605 -83.36143 37164 ft 524 kts 142°
2026-05-04 15:57 30.51323 -83.30357 37162 ft 520 kts 142°
2026-05-04 15:57 30.46079 -83.24613 37162 ft 518 kts 142°
2026-05-04 15:58 30.40839 -83.18887 37164 ft 517 kts 142°
2026-05-04 15:58 30.35629 -83.13220 37163 ft 518 kts 142°
2026-05-04 15:59 30.30386 -83.07508 37160 ft 518 kts 142°
2026-05-04 15:59 30.25135 -83.01807 37160 ft 518 kts 142°
2026-05-04 16:00 30.19882 -82.96105 37129 ft 517 kts 142°
2026-05-04 16:00 30.14645 -82.90426 37157 ft 516 kts 142°
2026-05-04 16:01 30.09439 -82.84799 36722 ft 514 kts 142°
2026-05-04 16:01 30.06834 -82.81984 36603 ft 513 kts 142°
2026-05-04 16:01 30.04222 -82.79165 36491 ft 514 kts 142°
2026-05-04 16:02 30.01603 -82.76342 36297 ft 516 kts 142°
2026-05-04 16:02 29.98968 -82.73509 35577 ft 519 kts 143°
2026-05-04 16:02 29.93675 -82.67814 34197 ft 521 kts 143°
2026-05-04 16:03 29.91023 -82.64958 33438 ft 522 kts 142°
2026-05-04 16:03 29.88415 -82.62146 32773 ft 520 kts 142°
2026-05-04 16:03 29.85774 -82.59300 32075 ft 519 kts 142°
2026-05-04 16:03 29.83132 -82.56462 31376 ft 519 kts 142°
2026-05-04 16:04 29.80484 -82.53627 30686 ft 520 kts 142°
2026-05-04 16:04 29.75178 -82.47954 29250 ft 521 kts 142°
2026-05-04 16:04 29.72527 -82.45117 28565 ft 521 kts 141°
2026-05-04 16:05 29.69877 -82.42275 27868 ft 521 kts 141°
2026-05-04 16:05 29.67259 -82.39470 27190 ft 520 kts 141°
2026-05-04 16:05 29.61973 -82.33824 25803 ft 516 kts 141°
2026-05-04 16:06 29.59360 -82.31039 25099 ft 509 kts 141°
2026-05-04 16:06 29.52555 -82.23796 23239 ft 493 kts 141°
2026-05-04 16:07 29.49216 -82.20253 22384 ft 484 kts 140°
2026-05-04 16:07 29.41964 -82.12562 20474 ft 467 kts 140°
2026-05-04 16:08 29.39593 -82.10045 19865 ft 461 kts 140°
2026-05-04 16:08 29.32668 -82.02705 18009 ft 442 kts 140°
2026-05-04 16:09 29.28199 -81.97990 16837 ft 432 kts 139°
2026-05-04 16:09 29.23826 -81.93385 15795 ft 422 kts 139°
2026-05-04 16:10 29.19538 -81.88860 14441 ft 413 kts 139°
2026-05-04 16:11 29.13713 -81.82700 12689 ft 357 kts 139°
2026-05-04 16:11 29.11920 -81.80812 12358 ft 347 kts 139°
2026-05-04 16:12 29.06649 -81.75301 11032 ft 327 kts 139°
2026-05-04 16:12 29.01908 -81.70318 9773 ft 296 kts 139°
2026-05-04 16:13 28.98946 -81.67216 8984 ft 290 kts 139°
2026-05-04 16:13 28.95966 -81.64097 8210 ft 290 kts 139°
2026-05-04 16:14 28.93023 -81.61011 7435 ft 284 kts 138°
2026-05-04 16:14 28.90160 -81.58019 6708 ft 280 kts 137°
2026-05-04 16:15 28.85815 -81.53475 5546 ft 284 kts 136°
2026-05-04 16:16 28.82899 -81.50439 4786 ft 283 kts 136°
2026-05-04 16:16 28.78867 -81.45786 3515 ft 257 kts 116°
2026-05-04 16:17 28.78130 -81.42357 2938 ft 200 kts 88°
2026-05-04 16:18 28.78143 -81.37959 2256 ft 166 kts 88°
2026-05-04 16:18 28.78147 -81.36707 2029 ft 148 kts 88°
2026-05-04 16:19 28.78155 -81.33495 1470 ft 132 kts 88°
2026-05-04 16:19 28.78160 -81.31452 1137 ft 131 kts 86°
2026-05-04 16:20 28.78152 -81.28382 618 ft 128 kts 84°
2026-05-04 16:20 28.78168 -81.26309 228 ft 126 kts 87°
2026-05-04 16:21 28.78176 -81.24026 60 ft 47 kts 100°
2026-05-04 16:22 28.78071 -81.23639 57 ft 23 kts 173°
2026-05-04 16:22 28.77557 -81.23629 52 ft 33 kts 178°